Weather History for Coffeyville, KS

Change the Weather History Date:

Sunday, January 27, 2013

  Actual Average Record
Temperature  
Mean Temperature 54 °F -  
Max Temperature 62 °F 43 °F 66 °F (2002)
Min Temperature 46 °F 24 °F 7 °F (1997)
Degree Days  
Heating Degree Days 11    
Growing Degree Days 4 (Base 50)    
Moisture  
Dew Point 46 °F    
Average Humidity 76    
Maximum Humidity 87    
Minimum Humidity 50    
Precipitation  
Precipitation 0.00 in - - ()
Sea Level Pressure  
Sea Level Pressure 29.94 in    
Wind  
Wind Speed 15 mph (South)    
Max Wind Speed 28 mph    
Max Gust Speed 40 mph    
Visibility 9 miles    
Events Rain    
Averages and records for this station are not official NWS values.
T = Trace of Precipitation, MM = Missing Value Source: NWS Daily Summary

Daily Weather History Graph

Daily Weather History Graph

Search for Another Location

Airport:

Trip Planner

Search our weather history database for the weather conditions in past years. The results will help you decide how hot, cold, wet, or windy it might be!

Date:

Astronomy

Jan. 27, 2013 Rise Set
Actual Time 7:28 AM CST 5:42 PM CST
Civil Twilight 7:00 AM CST 6:09 PM CST
Nautical Twilight 6:29 AM CST 6:41 PM CST
Astronomical Twilight 5:58 AM CST 7:11 PM CST
Moon 6:34 PM CST (1/27) 7:24 AM CST (1/27)
Length of Visible Light 11h 08m
Length of Day
10h 13m
Full, 100% of the Moon is Illuminated
Jan 27
Full
Feb 3
Last Quarter
Feb 10
New
Feb 17
First Quarter
Feb 25
Full

Hourly Weather History & Observations

Time (CST) Temp. Windchill Dew Point Humidity Pressure Visibility Wind Dir Wind Speed Gust Speed Precip Events Conditions
12:04 AM 48.2 °F - 30.2 °F 50% 30.09 in 10.0 mi SSE 11.5 mph - 0.00 in   Overcast
12:52 AM 48.0 °F - 30.9 °F 52% 30.10 in 10.0 mi South 9.2 mph - 0.00 in   Overcast
1:44 AM 46.4 °F 41.9 °F 33.8 °F 62% 30.08 in 10.0 mi SSE 9.2 mph - 0.00 in Rain Light Rain
1:52 AM 46.0 °F 41.0 °F 35.1 °F 66% 30.07 in 10.0 mi SSE 10.4 mph - 0.00 in Rain Light Rain
2:33 AM 46.4 °F 41.5 °F 35.6 °F 66% 30.03 in 10.0 mi SE 10.4 mph - 0.00 in   Overcast
2:52 AM 46.0 °F 40.2 °F 36.0 °F 68% 30.04 in 10.0 mi SSE 12.7 mph - 0.00 in Rain Light Rain
3:52 AM 46.9 °F - 37.0 °F 68% 30.03 in 10.0 mi SSE 9.2 mph - 0.00 in   Overcast
4:52 AM 46.0 °F 41.9 °F 37.0 °F 71% 30.02 in 10.0 mi South 8.1 mph - N/A   Overcast
5:23 AM 46.4 °F 42.4 °F 39.2 °F 76% 30.00 in 10.0 mi SSE 8.1 mph - N/A   Overcast
5:52 AM 46.9 °F - 39.9 °F 77% 30.00 in 10.0 mi South 9.2 mph - N/A   Overcast
6:52 AM 48.0 °F - 43.0 °F 83% 30.00 in 9.0 mi South 15.0 mph - N/A   Overcast
7:47 AM 48.2 °F - 44.6 °F 87% 29.98 in 8.0 mi South 17.3 mph - N/A   Overcast
7:52 AM 48.0 °F - 44.1 °F 86% 29.99 in 8.0 mi South 17.3 mph - N/A   Overcast
8:52 AM 50.0 °F - 46.0 °F 86% 29.96 in 8.0 mi South 19.6 mph 27.6 mph N/A   Overcast
9:52 AM 51.1 °F - 46.9 °F 86% 29.96 in 7.0 mi South 19.6 mph 28.8 mph N/A   Overcast
10:52 AM 53.1 °F - 48.9 °F 86% 29.96 in 7.0 mi South 23.0 mph 31.1 mph N/A   Overcast
11:52 AM 55.0 °F - 50.0 °F 83% 29.93 in 8.0 mi South 25.3 mph 33.4 mph N/A   Overcast
12:52 PM 55.9 °F - 51.1 °F 84% 29.89 in 9.0 mi South 25.3 mph 35.7 mph N/A   Overcast
1:33 PM 57.2 °F - 51.8 °F 82% 29.86 in 9.0 mi South 27.6 mph 36.8 mph N/A   Overcast
1:52 PM 61.0 °F - 53.1 °F 75% 29.85 in 10.0 mi South 27.6 mph 34.5 mph N/A   Overcast
2:06 PM 60.8 °F - 51.8 °F 72% 29.85 in 10.0 mi South 26.5 mph 32.2 mph N/A   Overcast
2:52 PM 62.1 °F - 53.1 °F 72% 29.84 in 10.0 mi South 25.3 mph 40.3 mph N/A   Overcast
3:52 PM 62.1 °F - 53.1 °F 72% 29.84 in 10.0 mi South 27.6 mph 34.5 mph N/A   Overcast
4:52 PM 61.0 °F - 53.1 °F 75% 29.83 in 10.0 mi South 20.7 mph 28.8 mph N/A   Overcast
5:52 PM 60.1 °F - 53.1 °F 78% 29.83 in 10.0 mi South 20.7 mph 26.5 mph N/A   Overcast
6:52 PM 60.1 °F - 54.0 °F 80% 29.86 in 10.0 mi South 20.7 mph 27.6 mph N/A   Overcast
7:52 PM 60.1 °F - 55.0 °F 83% 29.88 in 10.0 mi South 18.4 mph 26.5 mph N/A   Overcast
8:52 PM 61.0 °F - 55.0 °F 81% 29.87 in 9.0 mi South 11.5 mph 20.7 mph N/A   Overcast
9:49 PM 62.6 °F - 55.4 °F 77% 29.86 in 9.0 mi South 18.4 mph 24.2 mph N/A   Overcast
10:52 PM 60.1 °F - 55.0 °F 83% 29.86 in 9.0 mi South 16.1 mph 25.3 mph N/A   Partly Cloudy
11:52 PM 59.0 °F - 55.0 °F 87% 29.86 in 8.0 mi South 16.1 mph - N/A   Clear